Glendive, MT

9:58 PM MDT on July 26, 2017 (GMT -0600)
Dawson Community

Weather History for KGDV - February, 2014

Change the Weather History Date:

Tuesday, February 25, 2014

  Actual Average Record
Temperature  
Mean Temperature -3 °F -  
Max Temperature 8 °F 29 °F 55 °F (1999)
Min Temperature -14 °F 10 °F -23 °F (2011)
Degree Days  
Heating Degree Days 68    
Moisture  
Dew Point -9 °F    
Average Humidity 72    
Maximum Humidity 100    
Minimum Humidity 45    
Precipitation  
Precipitation 0.00 in - - ()
Sea Level Pressure  
Sea Level Pressure 30.40 in    
Wind  
Wind Speed 7 mph (West)    
Max Wind Speed 17 mph    
Max Gust Speed 17 mph    
Visibility 10 miles    
Events      
Averages and records for this station are not official NWS values.
T = Trace of Precipitation, MM = Missing Value Source: NWS Daily Summary

Daily Weather History Graph

Daily Weather History Graph

Search for Another Location

Airport or City:

Trip Planner

Search our weather history database for the weather conditions in past years. The results will help you decide how hot, cold, wet, or windy it might be!

Date:

Astronomy

Feb. 25, 2014 Rise Set
Actual Time 6:46 AM MST 5:38 PM MST
Civil Twilight 6:15 AM MST 6:09 PM MST
Nautical Twilight 5:40 AM MST 6:44 PM MST
Astronomical Twilight 5:05 AM MST 7:20 PM MST
Moon 3:54 AM MST (2/25) 1:36 PM MST (2/25)
Length of Visible Light 11h 53m
Length of Day
10h 52m
Waning Crescent, 17% of the Moon is Illuminated
Feb 25
Waning Crescent
Mar 1
New
Mar 8
First Quarter
Mar 16
Full
Mar 23
Last Quarter

Hourly Weather History & Observations

Time (MST) Temp. Windchill Dew Point Humidity Pressure Visibility Wind Dir Wind Speed Gust Speed Precip Events Conditions
12:15 AM -9.4 °F -24.3 °F -9.4 °F 100% 30.34 in 10.0 mi SW 6.9 mph - N/A   Clear
12:35 AM -9.4 °F -22.7 °F -18.4 °F 65% 30.34 in 10.0 mi SSW 5.8 mph - N/A   Clear
12:55 AM -9.4 °F -20.9 °F -13.0 °F 84% 30.34 in 10.0 mi SSW 4.6 mph - N/A   Clear
1:15 AM -9.4 °F -18.6 °F -14.8 °F 77% 30.34 in 10.0 mi SW 3.5 mph - N/A   Clear
1:35 AM -14.8 °F - -22.0 °F 70% 30.34 in 10.0 mi Calm Calm - N/A   Clear
1:55 AM -11.2 °F - -11.2 °F 100% 30.34 in 10.0 mi Calm Calm - N/A   Clear
2:15 AM -9.4 °F -20.9 °F -11.2 °F 92% 30.34 in 10.0 mi SSW 4.6 mph - N/A   Clear
2:35 AM -13.0 °F - -23.8 °F 59% 30.34 in 10.0 mi Calm Calm - N/A   Clear
2:55 AM -11.2 °F - -11.2 °F 100% 30.33 in 10.0 mi Calm Calm - N/A   Clear
3:15 AM -7.6 °F -22.1 °F -11.2 °F 84% 30.33 in 10.0 mi NW 6.9 mph - N/A   Clear
3:35 AM -9.4 °F - -25.6 °F 45% 30.34 in 10.0 mi Calm Calm - N/A   Clear
3:55 AM -9.4 °F -20.9 °F -9.4 °F 100% 30.34 in 10.0 mi West 4.6 mph - N/A   Clear
4:15 AM -7.6 °F - -18.4 °F 59% 30.35 in 10.0 mi Calm Calm - N/A   Clear
4:35 AM -5.8 °F -18.4 °F -5.8 °F 100% 30.35 in 10.0 mi WNW 5.8 mph - N/A   Clear
4:55 AM -5.8 °F -23.4 °F -13.0 °F 71% 30.36 in 10.0 mi WNW 10.4 mph - N/A   Clear
5:15 AM -5.8 °F -21.2 °F -7.6 °F 92% 30.37 in 10.0 mi WNW 8.1 mph - N/A   Partly Cloudy
5:35 AM -7.6 °F -22.1 °F -13.0 °F 77% 30.37 in 10.0 mi WNW 6.9 mph - N/A   Partly Cloudy
5:55 AM -5.8 °F -21.2 °F -9.4 °F 84% 30.38 in 10.0 mi WNW 8.1 mph - N/A   Partly Cloudy
6:15 AM -7.6 °F -20.6 °F -14.8 °F 71% 30.39 in 10.0 mi WNW 5.8 mph - N/A   Clear
6:35 AM -5.8 °F -19.9 °F -11.2 °F 77% 30.39 in 10.0 mi WNW 6.9 mph - N/A   Clear
6:55 AM -7.6 °F -18.8 °F -13.0 °F 77% 30.40 in 10.0 mi WNW 4.6 mph - N/A   Clear
7:15 AM -7.6 °F - -13.0 °F 77% 30.41 in 10.0 mi Calm Calm - N/A   Clear
7:35 AM -5.8 °F -16.7 °F -5.8 °F 100% 30.42 in 10.0 mi NW 4.6 mph - N/A   Clear
7:55 AM -2.2 °F -22.2 °F -7.6 °F 78% 30.43 in 10.0 mi NW 15.0 mph - N/A   Clear
8:15 AM -2.2 °F -23.5 °F -7.6 °F 78% 30.44 in 10.0 mi NW 17.3 mph - N/A   Clear
8:35 AM -0.4 °F -20.5 °F -5.8 °F 78% 30.44 in 10.0 mi NW 16.1 mph - N/A   Clear
8:55 AM -0.4 °F -19.2 °F -7.6 °F 72% 30.45 in 10.0 mi WNW 13.8 mph - N/A   Clear
9:15 AM -0.4 °F -19.2 °F -5.8 °F 78% 30.46 in 10.0 mi NW 13.8 mph - N/A   Clear
9:35 AM 1.4 °F -16.9 °F -7.6 °F 66% 30.47 in 10.0 mi NW 13.8 mph - N/A   Clear
9:55 AM 1.4 °F -16.9 °F -5.8 °F 72% 30.48 in 10.0 mi WNW 13.8 mph - N/A   Clear
10:15 AM 3.2 °F -13.9 °F -5.8 °F 66% 30.49 in 10.0 mi NNW 12.7 mph - N/A   Clear
10:35 AM 3.2 °F -13.1 °F -5.8 °F 66% 30.49 in 10.0 mi NW 11.5 mph - N/A   Clear
10:55 AM 3.2 °F -13.1 °F -5.8 °F 66% 30.50 in 10.0 mi NW 11.5 mph - N/A   Clear
11:15 AM 3.2 °F -11.3 °F -5.8 °F 66% 30.50 in 10.0 mi NW 9.2 mph - N/A   Clear
11:35 AM 5.0 °F -10.8 °F -4.0 °F 66% 30.51 in 10.0 mi NW 11.5 mph - N/A   Clear
11:55 AM 6.8 °F -7.8 °F -5.8 °F 56% 30.51 in 10.0 mi NW 10.4 mph - N/A   Clear
12:15 PM 6.8 °F -8.6 °F -7.6 °F 52% 30.50 in 10.0 mi NNW 11.5 mph - N/A   Clear
12:35 PM 6.8 °F -9.3 °F -5.8 °F 56% 30.50 in 10.0 mi NNW 12.7 mph - N/A   Clear
12:55 PM 6.8 °F -8.6 °F -5.8 °F 56% 30.50 in 10.0 mi North 11.5 mph - N/A   Clear
1:15 PM 6.8 °F -9.3 °F -5.8 °F 56% 30.49 in 10.0 mi NNW 12.7 mph 16.1 mph N/A   Clear
1:35 PM 8.6 °F -4.7 °F -4.0 °F 57% 30.50 in 10.0 mi WNW 9.2 mph 16.1 mph N/A   Clear
1:55 PM 8.6 °F -4.7 °F -4.0 °F 57% 30.49 in 10.0 mi NW 9.2 mph 17.3 mph N/A   Clear
2:15 PM 8.6 °F -4.7 °F -4.0 °F 57% 30.48 in 10.0 mi NW 9.2 mph - N/A   Clear
2:35 PM 8.6 °F -4.7 °F -4.0 °F 57% 30.48 in 10.0 mi WNW 9.2 mph - N/A   Clear
2:55 PM 8.6 °F -2.6 °F -4.0 °F 57% 30.47 in 10.0 mi NW 6.9 mph - N/A   Clear
3:15 PM 8.6 °F -4.7 °F -2.2 °F 62% 30.47 in 10.0 mi West 9.2 mph - N/A   Partly Cloudy
3:35 PM 8.6 °F -5.5 °F -5.8 °F 52% 30.46 in 10.0 mi West 10.4 mph - N/A   Partly Cloudy
3:55 PM 8.6 °F -4.7 °F -5.8 °F 52% 30.46 in 10.0 mi West 9.2 mph - N/A   Clear
4:15 PM 6.8 °F -7.8 °F -7.6 °F 52% 30.45 in 10.0 mi West 10.4 mph - N/A   Clear
4:35 PM 8.6 °F -3.7 °F -5.8 °F 52% 30.44 in 10.0 mi West 8.1 mph - N/A   Clear
4:55 PM 6.8 °F -6.9 °F -5.8 °F 56% 30.44 in 10.0 mi West 9.2 mph - N/A   Clear
5:15 PM 5.0 °F -9.1 °F -7.6 °F 56% 30.43 in 10.0 mi West 9.2 mph - N/A   Clear
5:35 PM 3.2 °F -9.1 °F -9.4 °F 56% 30.42 in 10.0 mi WSW 6.9 mph - N/A   Clear
5:55 PM 1.4 °F -9.9 °F -7.6 °F 66% 30.41 in 10.0 mi West 5.8 mph - N/A   Clear
6:15 PM -2.2 °F -15.6 °F -11.2 °F 66% 30.40 in 10.0 mi WSW 6.9 mph - N/A   Clear
6:35 PM -2.2 °F -15.6 °F -7.6 °F 78% 30.39 in 10.0 mi WSW 6.9 mph - N/A   Clear
6:55 PM -2.2 °F -15.6 °F -9.4 °F 71% 30.39 in 10.0 mi WSW 6.9 mph - N/A   Clear
7:15 PM -5.8 °F -19.9 °F -13.0 °F 71% 30.38 in 10.0 mi WSW 6.9 mph - N/A   Clear
7:35 PM -5.8 °F -19.9 °F -9.4 °F 84% 30.36 in 10.0 mi West 6.9 mph - N/A   Clear
7:55 PM -7.6 °F -24.6 °F -16.6 °F 65% 30.35 in 10.0 mi WSW 9.2 mph - N/A   Clear
8:15 PM -9.4 °F -24.3 °F -13.0 °F 84% 30.34 in 10.0 mi WSW 6.9 mph - N/A   Clear
8:35 PM -7.6 °F -24.6 °F -11.2 °F 84% 30.33 in 10.0 mi WSW 9.2 mph - N/A   Clear
8:55 PM -4.0 °F -19.0 °F -4.0 °F 100% 30.32 in 10.0 mi WSW 8.1 mph - N/A   Clear
9:15 PM -4.0 °F -20.2 °F -11.2 °F 71% 30.31 in 10.0 mi WSW 9.2 mph - N/A   Clear
9:35 PM -2.2 °F -16.8 °F -7.6 °F 78% 30.30 in 10.0 mi WSW 8.1 mph - N/A   Clear
9:55 PM -5.8 °F -18.4 °F -7.6 °F 92% 30.29 in 10.0 mi SSW 5.8 mph - N/A   Clear
10:15 PM -5.8 °F -19.9 °F -11.2 °F 77% 30.28 in 10.0 mi South 6.9 mph - N/A   Clear
10:35 PM -5.8 °F -22.4 °F -9.4 °F 84% 30.26 in 10.0 mi SSW 9.2 mph - N/A   Clear
10:55 PM -0.4 °F -15.7 °F -2.2 °F 92% 30.26 in 10.0 mi SW 9.2 mph - N/A   Clear
11:15 PM -0.4 °F -18.4 °F -5.8 °F 78% 30.24 in 10.0 mi SW 12.7 mph - N/A   Clear
11:35 PM -0.4 °F -17.6 °F -5.8 °F 78% 30.22 in 10.0 mi SW 11.5 mph - N/A   Clear
11:55 PM -0.4 °F -16.7 °F -7.6 °F 72% 30.21 in 10.0 mi SW 10.4 mph - N/A   Clear